BEIDOU-3 M23 (C45)

Last updated on Sat Apr 11 2026 00:03:32 GMT+0000 (Coordinated Universal Time)

1 44543U 19061B 26099.67749331 -.00000007 00000+0 00000+0 0 9999 2 44543 54.3943 185.0072 0004870 357.1259 25.7688 1.86227397 44520
UTC large
Height (km)
Speed (km/s)
/
Latitude / Longitude
Inclination (degrees)
Orbital Period (minutes)
Azimuth
Elevation
Range (km)
Doppler Factor

Next 0 passes for location: London (51.5072 / 0.1276)

Sorry there are no passes over London.